TimeEST,TemperatureF,Dew PointF,Humidity,Sea Level PressureIn,VisibilityMPH,Wind Direction,Wind SpeedMPH,Gust SpeedMPH,PrecipitationIn,Events,Conditions,WindDirDegrees,DateUTC
12:56 AM,24.1,12.0,60,29.97,10.0,WNW,16.1,24.2,N/A,,Clear,290,2014-02-24 05:56:00
1:56 AM,24.1,12.0,60,29.98,10.0,West,11.5,19.6,N/A,,Overcast,280,2014-02-24 06:56:00
2:56 AM,23.0,8.1,53,29.97,10.0,West,11.5,23.0,N/A,,Mostly Cloudy,280,2014-02-24 07:56:00
3:56 AM,21.9,7.0,53,29.97,10.0,West,12.7,20.7,N/A,,Overcast,280,2014-02-24 08:56:00
4:56 AM,21.9,8.1,55,29.98,10.0,West,11.5,-,N/A,,Overcast,280,2014-02-24 09:56:00
5:56 AM,21.0,10.9,65,29.98,10.0,WSW,16.1,-,N/A,,Overcast,250,2014-02-24 10:56:00
6:56 AM,19.9,9.0,62,29.98,10.0,WSW,17.3,25.3,N/A,,Overcast,250,2014-02-24 11:56:00
7:56 AM,19.0,9.0,65,29.99,10.0,WSW,18.4,27.6,N/A,,Mostly Cloudy,250,2014-02-24 12:56:00
8:12 AM,19.4,10.4,68,29.94,10.0,WSW,18.4,21.9,N/A,,Mostly Cloudy,250,2014-02-24 13:12:00
8:56 AM,21.0,10.0,63,30.01,10.0,WSW,19.6,-,N/A,,Overcast,250,2014-02-24 13:56:00
9:56 AM,21.0,8.1,57,30.02,10.0,West,21.9,31.1,N/A,,Overcast,260,2014-02-24 14:56:00
10:56 AM,23.0,8.1,53,30.02,10.0,West,19.6,28.8,N/A,,Overcast,280,2014-02-24 15:56:00
11:56 AM,23.0,10.0,58,30.03,9.0,West,19.6,26.5,0.00,,Overcast,260,2014-02-24 16:56:00
12:08 PM,23.0,12.2,63,29.96,4.0,West,12.7,26.5,0.00,Snow,Light Snow,260,2014-02-24 17:08:00
12:23 PM,24.8,10.4,54,29.95,9.0,West,17.3,25.3,0.00,,Overcast,280,2014-02-24 17:23:00
12:56 PM,24.1,10.0,55,30.02,10.0,West,16.1,24.2,0.00,,Overcast,260,2014-02-24 17:56:00
1:56 PM,24.1,8.1,51,30.02,10.0,West,20.7,29.9,N/A,,Overcast,270,2014-02-24 18:56:00
2:56 PM,24.1,8.1,51,30.03,10.0,WSW,20.7,28.8,N/A,,Overcast,250,2014-02-24 19:56:00
3:56 PM,24.1,9.0,53,30.04,10.0,West,18.4,24.2,N/A,,Overcast,260,2014-02-24 20:56:00
4:56 PM,23.0,9.0,55,30.06,10.0,West,19.6,27.6,N/A,,Overcast,260,2014-02-24 21:56:00
5:56 PM,21.9,7.0,53,30.09,10.0,West,16.1,25.3,N/A,,Mostly Cloudy,280,2014-02-24 22:56:00
6:56 PM,21.9,7.0,53,30.10,10.0,West,11.5,-,N/A,,Mostly Cloudy,280,2014-02-24 23:56:00
7:56 PM,21.0,8.1,57,30.12,10.0,West,8.1,-,N/A,,Overcast,280,2014-02-25 00:56:00
8:56 PM,21.0,9.0,60,30.12,10.0,West,8.1,-,N/A,,Overcast,280,2014-02-25 01:56:00
9:56 PM,19.0,10.0,68,30.12,10.0,WNW,8.1,-,N/A,,Clear,290,2014-02-25 02:56:00
10:56 PM,18.0,9.0,68,30.10,10.0,West,10.4,-,N/A,,Partly Cloudy,270,2014-02-25 03:56:00
11:56 PM,17.1,9.0,71,30.09,10.0,WSW,8.1,-,N/A,,Scattered Clouds,250,2014-02-25 04:56:00